STARLINK-1077 (44960 NORAD) Tracking and Keplerian Element Data

This shows tracking and keplerian element data for the satellite.

Feedback or suggestion? Click here.




ElementValue
Catalog44960
NameSTARLINK-1077
Epoch Orbit721
Epoch Day52.78281159
Epoch Year2020
RAAN169.5233
Inclination52.9966
Eccentricity0.0001548
Argument of Perigee28.6307
Mean Anonmoly331.4795
Mean Motion15.73159818
Decay Rate-0.00024781
L11 44960U 20001AY 20052.78281159 -.00024781 00000-0 -17291-3 0 9993
L22 44960 52.9966 169.5233 0001548 28.6307 331.4795 15.73159818 7215

Live tracking and technical data element details for STARLINK-1077 (NORAD 44960). STARLINK-1077 can be tracked NOW for your location showing map with azimuth and elevation plus other details from your city location.

Track the satellite on the map from your city or location and see movement details for azimuth, elevation, latitude, longitude, range, height, and movement on the map or in text.







IsCatalogInMostPopularTable: catalog: 44960, numindb: 12
Update: records affected: 1



GetName: 44960 STARLINK-1077

Hit Count: updated at: Mon, 24 Feb 2020 16:45:42 GMT